"Pseudo-MPEC" for C14PWA2

Created 2019 Oct 15 19:07:06 UT using Find_Orb

Click here for an explanation of pseudo-MPECs

 
 Astrometry: 
     C14PWA2  C2019 10 08.23661 01 10 54.75 -13 34 10.7    ~A86M 19.4 GVNEOCPG96
     C14PWA2  C2019 10 08.24141 01 10 58.52 -13 37 29.1    ~A86M 19.0 GVNEOCPG96
     C14PWA2  C2019 10 08.24621 01 11 02.41 -13 40 49.8    ~A86M       VNEOCPG96
     C14PWA2  C2019 10 08.25102 01 11 06.24 -13 44 08.3    ~A86M       VNEOCPG96
     C14PWA2  C2019 10 08.32652201 12 05.44 -14 36 04.0    ~A88q 19.2 GVNEOCPH01
     C14PWA2  C2019 10 08.33372101 12 11.17 -14 40 59.7    ~A88q 19.5 GVNEOCPH01
     C14PWA2  C2019 10 08.34130201 12 17.22 -14 46 10.9    ~A88q 19.5 GVNEOCPH01
     C14PWA2  C2019 10 08.35152501 12 25.38 -14 53 09.8    ~A88q 19.3 GVNEOCPH01
     C14PWA2  C2019 10 08.35404 01 12 28.03 -14 54 50.3    ~A88q 19.3 GVNEOCPI52
     C14PWA2  C2019 10 08.35460 01 12 28.47 -14 55 13.0    ~A88q 19.2 GVNEOCPI52
     C14PWA2  C2019 10 08.35516 01 12 28.95 -14 55 35.4    ~A88q 18.9 GVNEOCPI52
     C14PWA2  C2019 10 08.35572 01 12 29.38 -14 55 58.8    ~A88q 19.2 GVNEOCPI52
     C14PWA2 KC2019 10 08EcybEP1QE:*3^6kd6VQGLAr;_OrN;!M%5$*FU);9SPa=frn3Dj_9104
     C14PWA2 KC2019 10 08O5s!=5jnWYr;Y'ENA;(KWE7On$M^dggS`BJOE:CVMoK,Qp[LfcwC104
     C14PWA2 KC2019 10 08bhLVFynd@[=[$g0#[.3bW^o./P4um1rUSxfAstrometrywZdr\St104
     C14PWA2 KC2019 10 08#=Q9%d!7HpyW4,GyX#SViS.#q?S3mWPDJ0.KGWvredacted;FhP4L01
     C14PWA2 KC2019 10 08uxclick4SUAdxNr!ExuS1hdhere;g4%u9L,5Mu@;Jrfor)WMJA%xL01
     C14PWA2 KC2019 10 08mZxkUQVx;Le)Q:BXG2_vRFJ^WQ.S0aFj_8jHx_texplanation=hL01
     C14PWA2  C2019 10 09.28862 01 26 26.67 -25 11 02.0    ~A9Cb 19.2 GVNEOCPI52
     C14PWA2  C2019 10 09.28974 01 26 27.63 -25 11 44.0    ~A9Cb 19.4 GVNEOCPI52
     C14PWA2  C2019 10 09.29085 01 26 28.57 -25 12 26.0    ~A9Cb 19.4 GVNEOCPI52

Station data:
(104) San Marcello Pistoiese  (N44.063037 E10.804200)  Italy. 0.40-m f/5
   reflector.
(G96) Mt. Lemmon Survey  (N32.442754 W110.788720)  US/Arizona.  Observers T.
   A. Pruyne, B. M. Africano, E. J. Christensen, G. A. Farneth, D. C. Fuls,
   A. R. Gibbs, A. D. Grauer, H. Groeller, J. A. Johnson, R. A. Kowalski, S.
   M. Larson, G. J. Leonard, D. Rankin, R. L. Seaman, F. C. Shelly. 1.5-m
   reflector + 10K CCD.
(H01) Magdalena Ridge Observatory, Socorro  (N33.984833 W107.189333)  US/New
   Mexico.  Observers W. H. Ryan, E. V. Ryan. Measurer W. H. Ryan. 2.4-m
   f/8.9 reflector + CCD.
(I52) Steward Observatory, Mt. Lemmon Station  (N32.442547 W110.788920)
   US/Arizona.  Observers T. A. Pruyne, B. M. Africano, E. J. Christensen, G.
   A. Farneth, D. C. Fuls, A. R. Gibbs, A. D. Grauer, H. Groeller, J. A.
   Johnson, R. A. Kowalski, S. M. Larson, G. J. Leonard, D. Rankin, R. L.
   Seaman, F. C. Shelly. 1.0-m reflector + CCD.
(L01) Višnjan Observatory, Tičan  (N45.290900 E13.749300)  Croatia.
   Observers K. Korlević, E. Pettarin. Measurer E. Pettarin. 1.0-m f/2.9
   reflector + CCD.

Orbital elements:  C14PWA2
   Perihelion 2019 Nov 12.925524 +/- 0.102 TT = 22:12:45 (JD 2458800.425524)
Epoch 2019 Oct  9.0 TT = JDT 2458765.5   Earth MOID: 0.0435   Ma: 0.0389
M 338.06186570 +/- 0.12             (J2000 ecliptic)          AutoNEOCP
n   0.62814043 +/- 0.00175          Peri.  220.41546 +/- 0.09
a   1.35030397 +/- 0.00251          Node   192.78041 +/- 0.00017
e   0.2649071 +/- 0.00126           Incl.   28.56666 +/- 0.06
P   1.57/573.11d           H 25.3   G  0.15   U  8.5  
q 0.99259875 +/- 0.00016    Q 1.70800919 +/- 0.00486
From 21 observations 2019 Oct. 8-9 (25.3 hr); mean residual 0".36
Residuals in arcseconds: 
191008 G96  .12+  .88+    191008 H01  .08-  .07-    191008 104  .44-  .28+    
191008 G96  .71-  1.1+    191008 I52  .10-  .39-    191008 L01  .08+  .52+    
191008 G96  .26+  .95-    191008 I52  .20-  .14-    191008 L01  .15+  .07+    
191008 G96  .28+  .50-    191008 I52  .28+  .41+    191008 L01  .20+  .15-    
191008 H01  .00   .11-    191008 I52  .04+  .04-    191009 I52  .32-  .22-    
191008 H01  .05-  .20-    191008 104  .38+  .02-    191009 I52  .07-  .02+    
191008 H01  .02+  .32-    191008 104  .03+  .23-    191009 I52  .02+  .13-    

Ephemerides (geocentric):
Date (UTC) HH   RA              Dec         delta   r     elong  mag " sig PA
---- -- -- --  -------------   -----------  ------ ------ -----  --- ---- ---
2019 10 15 19  03 15 03.912   -62 44 33.36  .08487 1.0230 105.4 22.4 1.75 141
2019 10 15 20  03 15 46.064   -62 50 35.65  .08519 1.0229 105.3 22.4 1.77 141
2019 10 15 21  03 16 28.176   -62 56 34.33  .08552 1.0228 105.2 22.4 1.78 141
2019 10 15 22  03 17 10.247   -63 02 29.44  .08584 1.0227 105.0 22.4 1.79 140
2019 10 15 23  03 17 52.276   -63 08 21.02  .08617 1.0227 104.9 22.5 1.80 140
2019 10 16 00  03 18 34.263   -63 14 09.12  .08650 1.0226 104.8 22.5 1.82 140
2019 10 16 01  03 19 16.206   -63 19 53.75  .08682 1.0225 104.7 22.5 1.83 140
2019 10 16 02  03 19 58.105   -63 25 34.98  .08715 1.0224 104.5 22.5 1.84 140
2019 10 16 03  03 20 39.958   -63 31 12.82  .08748 1.0223 104.4 22.5 1.85 140
2019 10 16 04  03 21 21.767   -63 36 47.31  .08780 1.0222 104.3 22.5 1.86 140
2019 10 16 05  03 22 03.528   -63 42 18.50  .08813 1.0221 104.1 22.5 1.87 139
2019 10 16 06  03 22 45.243   -63 47 46.41  .08846 1.0221 104.0 22.5 1.89 139
2019 10 16 07  03 23 26.909   -63 53 11.09  .08879 1.0220 103.9 22.5 1.90 139
2019 10 16 08  03 24 08.527   -63 58 32.56  .08912 1.0219 103.8 22.6 1.91 139
2019 10 16 09  03 24 50.096   -64 03 50.85  .08945 1.0218 103.7 22.6 1.92 139
2019 10 16 10  03 25 31.614   -64 09 06.01  .08978 1.0217 103.5 22.6 1.93 139
2019 10 16 11  03 26 13.082   -64 14 18.07  .09011 1.0216 103.4 22.6 1.94 139
2019 10 16 12  03 26 54.498   -64 19 27.05  .09044 1.0215 103.3 22.6 1.96 138
2019 10 16 13  03 27 35.862   -64 24 33.00  .09077 1.0215 103.2 22.6 1.97 138
2019 10 16 14  03 28 17.174   -64 29 35.94  .09110 1.0214 103.1 22.6 1.98 138
2019 10 16 15  03 28 58.431   -64 34 35.90  .09143 1.0213 102.9 22.6 1.99 138
2019 10 16 16  03 29 39.635   -64 39 32.92  .09176 1.0212 102.8 22.6 2.00 138
2019 10 16 17  03 30 20.783   -64 44 27.03  .09209 1.0211 102.7 22.7 2.01 138
2019 10 16 18  03 31 01.876   -64 49 18.25  .09242 1.0210 102.6 22.7 2.02 138
2019 10 16 19  03 31 42.912   -64 54 06.63  .09276 1.0209 102.5 22.7 2.03 137
2019 10 16 20  03 32 23.892   -64 58 52.18  .09309 1.0209 102.4 22.7 2.05 137
2019 10 16 21  03 33 04.814   -65 03 34.94  .09342 1.0208 102.3 22.7 2.06 137
2019 10 16 22  03 33 45.678   -65 08 14.94  .09375 1.0207 102.2 22.7 2.07 137
2019 10 16 23  03 34 26.483   -65 12 52.20  .09409 1.0206 102.1 22.7 2.08 137
2019 10 17 00  03 35 07.229   -65 17 26.76  .09442 1.0205 101.9 22.7 2.09 137
2019 10 17 01  03 35 47.914   -65 21 58.65  .09476 1.0204 101.8 22.7 2.10 137
2019 10 17 02  03 36 28.539   -65 26 27.88  .09509 1.0204 101.7 22.7 2.11 137
2019 10 17 03  03 37 09.103   -65 30 54.50  .09542 1.0203 101.6 22.8 2.12 136
2019 10 17 04  03 37 49.604   -65 35 18.52  .09576 1.0202 101.5 22.8 2.13 136
2019 10 17 05  03 38 30.043   -65 39 39.98  .09609 1.0201 101.4 22.8 2.14 136
2019 10 17 06  03 39 10.419   -65 43 58.89  .09643 1.0200 101.3 22.8 2.16 136
2019 10 17 07  03 39 50.731   -65 48 15.30  .09677 1.0199 101.2 22.8 2.17 136
2019 10 17 08  03 40 30.979   -65 52 29.22  .09710 1.0199 101.1 22.8 2.18 136
2019 10 17 09  03 41 11.162   -65 56 40.68  .09744 1.0198 101.0 22.8 2.19 136
2019 10 17 10  03 41 51.280   -66 00 49.70  .09777 1.0197 100.9 22.8 2.20 135
2019 10 17 11  03 42 31.331   -66 04 56.31  .09811 1.0196 100.8 22.8 2.21 135
2019 10 17 12  03 43 11.316   -66 09 00.54  .09845 1.0195 100.7 22.8 2.22 135
2019 10 17 13  03 43 51.234   -66 13 02.41  .09878 1.0194 100.6 22.9 2.23 135
2019 10 17 14  03 44 31.085   -66 17 01.95  .09912 1.0194 100.5 22.9 2.24 135
2019 10 17 15  03 45 10.867   -66 20 59.17  .09946 1.0193 100.4 22.9 2.25 135
2019 10 17 16  03 45 50.580   -66 24 54.11  .09980 1.0192 100.3 22.9 2.26 135
2019 10 17 17  03 46 30.225   -66 28 46.78  .10013 1.0191 100.2 22.9 2.27 135
2019 10 17 18  03 47 09.799   -66 32 37.21  .10047 1.0190 100.1 22.9 2.28 134